GROUP/SHIP,CRUISE_DESIGNATION,JD_GMT,DATE_DDMMYYYY,TIME_HH:MM:SS,LAT_DEC_DEGREE,LONG_DEC_DEGREE,xCO2W_PPM,xCO2A_PPM,PRES_EQUIL_hPa,PRES_SEALEVEL_hPa,EqTEMP_C,SST(TSG)_C,SAL(TSG)_PERMIL,WATER_FLOW_L/MIN,GAS_FLOW_IR_ML/MIN,TEMP_IR_C,PRES_IR_hPa,SHIP_HEADING_TRUE_DEGREE,SHIP_SPEED_KNOT,WIND_DIR_REL_DEGREE,WIND_SPEED_REL_M/S,fCO2W@SST_uATM,QC_FLAG_WATER,fCO2A_uATM,QC_FLAG_AIR,dfCO2_uATM,FLUORO_uG/L,WIND_SPEED_TRUE_M/S,WIND_DIR_TRUE_DEGREE,AIR_TEMP_C
AOML_Brown,RB200307,264.888,21092003,21:18:38,30.000,-86.005,400.44,375.46,1013.83,-9,28.47,28.42,31.85,11.36,256.89,33.11,1013.83,-9,-9,293.00,9.89,383.78,2,360.40,2,23.38,1.26,9.54,132.27,-9
AOML_Brown,RB200307,264.891,21092003,21:23:18,29.992,-86.022,401.52,375.46,1013.76,-9,28.47,28.40,31.88,11.53,257.76,33.11,1013.76,-9,-9,286.00,9.89,384.43,2,360.40,2,24.03,1.23,10.36,128.57,-9
AOML_Brown,RB200307,264.894,21092003,21:27:38,29.986,-86.039,402.08,375.46,1013.75,-9,28.48,28.39,31.90,11.53,258.57,33.11,1013.75,-9,-9,288.40,9.79,384.78,2,360.40,2,24.38,1.21,10.00,128.06,-9
AOML_Brown,RB200307,264.897,21092003,21:32:18,29.978,-86.056,402.43,375.46,1013.66,-9,28.43,28.39,31.93,11.45,257.38,33.09,1013.66,-9,-9,290.20,9.09,385.67,2,360.40,2,25.28,1.21,9.24,126.59,-9
AOML_Brown,RB200307,264.909,21092003,21:48:38,29.951,-86.118,402.63,375.46,1013.76,-9,28.46,28.38,31.82,11.37,255.52,33.11,1013.76,-9,-9,294.70,8.89,385.41,2,360.40,2,25.01,1.23,8.72,128.49,-9
AOML_Brown,RB200307,264.912,21092003,21:53:18,29.944,-86.136,402.65,375.46,1013.68,-9,28.43,28.34,31.82,11.48,257.54,33.11,1013.68,-9,-9,284.80,8.79,385.29,2,360.40,2,24.89,1.22,8.69,127.83,-9
AOML_Brown,RB200307,264.915,21092003,21:57:38,29.937,-86.153,402.89,375.46,1013.79,-9,28.40,28.33,31.83,11.52,255.97,33.11,1013.79,-9,-9,292.90,8.29,385.86,2,360.40,2,25.46,1.23,8.43,126.16,-9
AOML_Brown,RB200307,264.918,21092003,22:02:18,29.929,-86.170,402.10,375.46,1013.83,-9,28.39,28.29,31.79,11.48,255.70,33.09,1013.83,-9,-9,295.20,8.79,384.67,2,360.40,2,24.27,1.22,8.54,128.49,-9
AOML_Brown,RB200307,264.930,21092003,22:18:38,29.904,-86.232,393.27,377.14,1013.88,-9,28.31,28.22,31.58,11.41,256.41,33.11,1013.88,-9,-9,292.10,8.29,376.54,2,362.18,3,14.36,1.31,8.45,121.98,-9
AOML_Brown,RB200307,264.933,21092003,22:23:18,29.897,-86.249,395.68,377.14,1013.67,-9,28.33,28.27,31.71,11.34,256.29,33.12,1013.67,-9,-9,285.70,9.39,379.05,2,362.18,3,16.87,1.31,9.92,126.12,-9
AOML_Brown,RB200307,264.936,21092003,22:27:38,29.890,-86.265,395.48,377.14,1013.57,-9,28.21,28.11,31.48,11.15,256.77,33.10,1013.57,-9,-9,287.90,8.49,378.41,2,362.18,3,16.24,1.36,9.02,122.70,-9
AOML_Brown,RB200307,264.939,21092003,22:32:18,29.883,-86.282,388.79,377.14,1013.74,-9,28.16,28.12,31.53,11.36,255.76,33.10,1013.74,-9,-9,290.90,8.89,372.87,2,362.18,3,10.69,1.32,9.02,124.35,-9
AOML_Brown,RB200307,264.950,21092003,22:48:38,29.855,-86.342,372.52,377.14,1013.63,-9,28.39,28.38,31.94,11.33,252.69,33.09,1013.63,-9,-9,288.30,8.09,357.42,2,362.18,3,-4.76,1.05,8.65,122.52,-9
AOML_Brown,RB200307,264.954,21092003,22:53:18,29.848,-86.359,372.35,377.14,1013.52,-9,28.48,28.41,32.02,11.35,253.58,33.10,1013.52,-9,-9,300.70,8.49,356.39,2,362.18,3,-5.79,1.00,7.70,134.89,-9
AOML_Brown,RB200307,264.957,21092003,22:57:38,29.841,-86.375,372.56,377.14,1013.66,-9,28.48,28.38,31.98,11.44,255.01,33.08,1013.66,-9,-9,293.60,8.49,356.34,2,362.18,3,-5.83,0.98,8.41,132.02,-9
AOML_Brown,RB200307,264.960,21092003,23:02:18,29.835,-86.393,372.63,377.14,1013.50,-9,28.44,28.39,32.01,11.47,254.28,33.08,1013.50,-9,-9,292.20,8.19,356.93,2,362.18,3,-5.24,0.98,8.35,129.68,-9
AOML_Brown,RB200307,264.971,21092003,23:18:38,29.811,-86.456,368.61,376.62,1013.35,-9,28.36,28.30,31.86,11.35,252.63,33.09,1013.35,-9,-9,280.70,6.79,352.98,2,361.53,3,-8.55,1.00,8.60,114.58,-9
AOML_Brown,RB200307,264.975,21092003,23:23:18,29.804,-86.473,367.45,376.62,1013.33,-9,28.38,28.22,31.79,11.50,255.40,33.10,1013.33,-9,-9,284.70,7.39,350.59,2,361.53,3,-10.94,0.97,8.64,116.25,-9
AOML_Brown,RB200307,264.978,21092003,23:27:38,29.797,-86.489,365.77,376.62,1013.42,-9,28.28,28.16,31.71,11.43,257.35,33.08,1013.42,-9,-9,288.60,7.39,349.62,2,361.53,3,-11.91,0.98,8.14,120.26,-9
AOML_Brown,RB200307,264.981,21092003,23:32:18,29.789,-86.507,366.02,376.62,1013.48,-9,28.29,28.17,31.72,11.41,257.13,33.08,1013.48,-9,-9,277.90,8.19,349.91,2,361.53,3,-11.62,1.03,9.97,117.35,-9
AOML_Brown,RB200307,264.992,21092003,23:48:38,29.763,-86.569,383.04,376.62,1013.29,-9,28.37,28.30,31.68,11.40,252.68,33.10,1013.29,-9,-9,282.40,8.29,366.67,2,361.53,3,5.14,1.18,9.52,123.16,-9
AOML_Brown,RB200307,264.995,21092003,23:53:18,29.756,-86.587,385.81,376.62,1013.32,-9,28.39,28.27,31.60,11.43,253.76,33.09,1013.32,-9,-9,286.30,8.89,368.69,2,361.53,3,7.16,1.21,9.11,122.09,-9
AOML_Brown,RB200307,264.998,21092003,23:57:38,29.749,-86.604,384.84,376.62,1013.31,-9,28.33,28.22,31.58,11.39,255.32,33.08,1013.31,-9,-9,293.30,8.39,367.90,2,361.53,3,6.37,1.16,8.49,130.12,-9
AOML_Brown,RB200307,265.002,22092003,00:02:18,29.742,-86.621,382.52,376.62,1013.32,-9,28.31,28.21,31.61,11.26,254.18,33.07,1013.32,-9,-9,302.10,8.19,365.78,2,361.53,3,4.25,1.15,7.55,131.87,-9
AOML_Brown,RB200307,265.013,22092003,00:18:38,29.717,-86.683,379.93,374.65,1013.77,-9,28.27,28.15,31.57,11.35,257.32,33.10,1013.77,-9,-9,329.50,7.99,363.25,2,359.90,2,3.35,1.15,4.07,158.34,-9
AOML_Brown,RB200307,265.016,22092003,00:23:18,29.710,-86.700,380.30,374.65,1014.11,-9,28.24,28.13,31.52,11.16,255.96,33.09,1014.11,-9,-9,331.20,6.19,363.97,2,359.90,2,4.08,1.13,3.47,132.17,-9
AOML_Brown,RB200307,265.019,22092003,00:27:38,29.703,-86.716,379.98,374.65,1014.21,-9,28.27,28.22,31.67,11.32,256.02,33.10,1014.21,-9,-9,355.70,6.29,364.39,2,359.90,2,4.49,1.12,0.60,113.37,-9
AOML_Brown,RB200307,265.022,22092003,00:32:18,29.697,-86.732,377.50,374.65,1014.00,-9,28.27,28.18,31.57,11.38,256.55,33.08,1014.00,-9,-9,269.60,5.19,361.41,2,359.90,2,1.51,1.04,7.67,98.11,-9
AOML_Brown,RB200307,265.034,22092003,00:48:38,29.671,-86.787,377.16,374.65,1014.25,-9,28.43,28.33,31.80,11.20,250.37,33.10,1014.25,-9,-9,242.90,6.59,360.96,2,359.90,2,1.06,1.00,11.07,91.72,-9
AOML_Brown,RB200307,265.037,22092003,00:53:18,29.664,-86.804,376.43,374.65,1014.07,-9,28.44,28.34,31.96,11.33,252.39,33.09,1014.07,-9,-9,283.70,3.60,360.18,2,359.90,2,0.28,0.96,6.80,91.91,-9
AOML_Brown,RB200307,265.040,22092003,00:57:38,29.658,-86.820,376.04,374.65,1013.94,-9,28.43,28.37,32.42,11.32,254.06,33.09,1013.94,-9,-9,301.40,5.59,360.29,2,359.90,2,0.39,0.95,5.81,117.65,-9
AOML_Brown,RB200307,265.043,22092003,01:02:19,29.651,-86.836,378.58,374.65,1013.92,-9,28.48,28.38,32.61,11.30,254.32,33.08,1013.92,-9,-9,305.40,5.59,362.11,2,359.90,2,2.21,0.92,5.48,117.63,-9
AOML_Brown,RB200307,265.055,22092003,01:18:39,29.628,-86.893,370.47,373.12,1013.70,-9,28.45,28.38,32.48,11.27,254.60,33.10,1013.70,-9,-9,289.50,9.39,354.75,2,358.30,2,-3.55,0.92,9.36,136.25,-9
AOML_Brown,RB200307,265.058,22092003,01:23:19,29.621,-86.909,369.92,373.12,1013.82,-9,28.51,28.49,32.54,11.31,255.38,33.10,1013.82,-9,-9,289.50,9.39,354.78,2,358.30,2,-3.52,0.91,9.33,134.14,-9
AOML_Brown,RB200307,265.061,22092003,01:27:39,29.615,-86.924,370.82,373.12,1014.00,-9,28.60,28.53,32.58,11.06,255.51,33.09,1014.00,-9,-9,289.50,9.39,355.07,2,358.30,2,-3.23,0.91,9.37,134.35,-9
AOML_Brown,RB200307,265.064,22092003,01:32:19,29.608,-86.940,371.69,373.12,1014.10,-9,28.62,28.53,32.63,11.38,258.02,33.08,1014.10,-9,-9,289.50,9.39,355.71,2,358.30,2,-2.59,0.91,9.41,135.86,-9
AOML_Brown,RB200307,265.075,22092003,01:48:39,29.585,-86.997,370.47,373.12,1014.07,-9,28.53,28.44,32.65,11.32,251.44,33.08,1014.07,-9,-9,289.50,9.39,354.57,2,358.30,2,-3.73,0.90,9.33,134.94,-9
AOML_Brown,RB200307,265.079,22092003,01:53:19,29.579,-87.013,370.52,373.12,1014.20,-9,28.50,28.44,32.65,11.35,253.69,33.08,1014.20,-9,-9,289.50,9.39,355.04,2,358.30,2,-3.26,0.88,9.33,132.94,-9
AOML_Brown,RB200307,265.082,22092003,01:57:39,29.573,-87.027,370.60,373.12,1014.26,-9,28.53,28.47,32.80,11.41,253.44,33.07,1014.26,-9,-9,289.50,9.39,355.06,2,358.30,2,-3.24,0.87,9.34,129.44,-9
AOML_Brown,RB200307,265.085,22092003,02:02:19,29.566,-87.043,371.67,373.12,1014.42,-9,28.59,28.51,32.94,11.29,255.60,33.05,1014.42,-9,-9,289.50,9.39,355.92,2,358.30,2,-2.39,0.86,9.29,126.75,-9
AOML_Brown,RB200307,265.096,22092003,02:18:39,29.543,-87.099,378.92,372.99,1014.37,-9,28.83,28.76,33.36,11.30,253.96,33.08,1014.37,-9,-9,289.50,9.39,362.75,2,358.00,2,4.75,0.85,9.41,131.46,-9
AOML_Brown,RB200307,265.100,22092003,02:23:19,29.536,-87.116,379.89,372.99,1014.40,-9,28.84,28.74,33.36,11.20,255.56,33.07,1014.40,-9,-9,289.50,9.39,363.32,2,358.00,2,5.32,0.86,9.43,131.96,-9
AOML_Brown,RB200307,265.103,22092003,02:27:39,29.529,-87.131,379.95,372.99,1014.30,-9,28.81,28.72,33.35,11.38,256.39,33.07,1014.30,-9,-9,289.50,9.39,363.46,2,358.00,2,5.46,0.86,9.45,129.77,-9
AOML_Brown,RB200307,265.106,22092003,02:32:19,29.522,-87.147,379.69,372.99,1014.29,-9,28.80,28.73,33.35,11.29,258.11,33.06,1014.29,-9,-9,289.50,9.39,363.51,2,358.00,2,5.51,0.86,9.36,130.05,-9
AOML_Brown,RB200307,265.117,22092003,02:48:39,29.499,-87.204,376.70,372.99,1014.02,-9,28.57,28.35,32.92,11.22,251.56,33.08,1014.02,-9,-9,289.50,9.39,358.79,2,358.00,2,0.80,0.86,9.39,133.05,-9
AOML_Brown,RB200307,265.120,22092003,02:53:19,29.493,-87.220,373.32,372.99,1014.07,-9,28.44,28.33,32.86,11.35,254.55,33.07,1014.07,-9,-9,289.50,9.39,357.10,2,358.00,2,-0.90,0.85,9.34,135.24,-9
AOML_Brown,RB200307,265.123,22092003,02:57:39,29.486,-87.235,371.05,372.99,1014.07,-9,28.42,28.30,32.80,11.32,254.97,33.07,1014.07,-9,-9,289.50,9.39,354.80,2,358.00,2,-3.19,0.84,9.39,129.75,-9
AOML_Brown,RB200307,265.127,22092003,03:02:19,29.479,-87.251,369.74,372.99,1014.00,-9,28.40,28.31,32.76,11.28,254.56,33.06,1014.00,-9,-9,289.50,9.39,353.91,2,358.00,2,-4.09,0.84,9.41,129.46,-9
AOML_Brown,RB200307,265.138,22092003,03:18:39,29.455,-87.307,371.22,373.13,1013.89,-9,28.56,28.51,32.97,11.24,253.06,33.07,1013.89,-9,-9,289.50,9.39,355.73,2,358.12,2,-2.38,0.83,9.37,131.85,-9
AOML_Brown,RB200307,265.141,22092003,03:23:19,29.448,-87.324,373.49,373.13,1013.90,-9,28.61,28.57,33.05,11.13,254.46,33.06,1013.90,-9,-9,289.50,9.39,357.91,2,358.12,2,-0.21,0.83,9.41,132.66,-9
AOML_Brown,RB200307,265.144,22092003,03:27:39,29.443,-87.339,375.70,373.13,1013.98,-9,28.69,28.62,33.14,11.33,256.43,33.05,1013.98,-9,-9,289.50,9.39,359.72,2,358.12,2,1.60,0.82,9.50,128.00,-9
AOML_Brown,RB200307,265.147,22092003,03:32:19,29.436,-87.356,377.33,373.13,1014.08,-9,28.70,28.65,33.17,11.22,256.88,33.04,1014.08,-9,-9,289.50,9.39,361.51,2,358.12,2,3.39,0.81,9.39,128.55,-9
AOML_Brown,RB200307,265.159,22092003,03:48:39,29.411,-87.413,379.68,373.13,1014.00,-9,28.78,28.71,33.42,11.27,252.34,33.03,1014.00,-9,-9,289.50,9.39,363.43,2,358.12,2,5.31,0.79,9.39,129.35,-9
AOML_Brown,RB200307,265.162,22092003,03:53:19,29.404,-87.429,381.01,373.13,1014.05,-9,28.77,28.70,33.45,11.24,255.20,33.03,1014.05,-9,-9,289.50,9.39,364.64,2,358.12,2,6.53,0.80,9.43,129.56,-9
AOML_Brown,RB200307,265.165,22092003,03:57:39,29.398,-87.445,381.68,373.13,1014.03,-9,28.77,28.71,33.50,11.18,256.71,33.02,1014.03,-9,-9,289.50,9.39,365.45,2,358.12,2,7.33,0.81,9.43,131.86,-9
AOML_Brown,RB200307,265.168,22092003,04:02:19,29.390,-87.461,382.16,373.13,1014.06,-9,28.77,28.69,33.53,11.21,255.98,33.01,1014.06,-9,-9,289.50,9.39,365.65,2,358.12,2,7.54,0.80,9.41,129.06,-9
AOML_Brown,RB200307,265.180,22092003,04:18:39,29.366,-87.520,383.27,372.91,1013.68,-9,28.79,28.74,33.86,11.26,252.44,33.04,1013.68,-9,-9,289.50,9.39,367.00,2,357.57,2,9.44,0.79,9.45,130.37,-9
AOML_Brown,RB200307,265.183,22092003,04:23:19,29.360,-87.536,384.85,372.91,1013.72,-9,28.81,28.74,33.97,11.19,255.97,33.03,1013.72,-9,-9,289.50,9.39,368.23,2,357.57,2,10.66,0.79,9.46,129.78,-9
AOML_Brown,RB200307,265.186,22092003,04:27:39,29.354,-87.552,386.53,372.91,1013.65,-9,28.84,28.80,34.12,11.16,255.60,33.03,1013.65,-9,-9,289.50,9.39,370.14,2,357.57,2,12.57,0.79,9.48,128.69,-9
AOML_Brown,RB200307,265.189,22092003,04:32:19,29.347,-87.568,388.61,372.91,1013.58,-9,28.89,28.83,34.26,11.13,257.40,33.02,1013.58,-9,-9,289.50,9.39,371.88,2,357.57,2,14.32,0.80,9.45,127.77,-9
AOML_Brown,RB200307,265.200,22092003,04:48:39,29.321,-87.626,395.11,372.91,1013.56,-9,28.93,28.81,34.29,11.08,250.83,33.05,1013.56,-9,-9,289.50,9.39,377.15,2,357.57,2,19.58,0.79,9.56,129.74,-9
AOML_Brown,RB200307,265.204,22092003,04:53:19,29.314,-87.643,392.37,372.91,1013.50,-9,28.84,28.74,33.94,11.05,251.54,33.04,1013.50,-9,-9,289.50,9.39,374.95,2,357.57,2,17.38,0.80,9.48,130.29,-9
AOML_Brown,RB200307,265.207,22092003,04:57:39,29.307,-87.658,388.79,372.91,1013.35,-9,28.81,28.73,33.62,11.10,252.14,33.04,1013.35,-9,-9,289.50,9.39,371.65,2,357.57,2,14.08,0.80,9.46,132.08,-9
AOML_Brown,RB200307,265.210,22092003,05:02:19,29.300,-87.675,385.19,372.91,1013.28,-9,28.77,28.67,33.45,11.06,256.31,33.02,1013.28,-9,-9,289.50,9.39,367.98,2,357.57,2,10.41,0.81,9.46,133.88,-9
AOML_Brown,RB200307,265.221,22092003,05:18:39,29.277,-87.734,378.47,372.75,1012.94,-9,28.74,28.62,33.09,10.90,253.16,33.05,1012.94,-9,-9,289.50,9.39,361.30,2,357.21,2,4.09,0.79,9.46,132.18,-9
AOML_Brown,RB200307,265.225,22092003,05:23:19,29.270,-87.751,377.82,372.75,1012.95,-9,28.73,28.67,33.17,11.00,255.41,33.04,1012.95,-9,-9,289.50,9.39,361.44,2,357.21,2,4.23,0.79,9.43,133.36,-9
AOML_Brown,RB200307,265.228,22092003,05:27:39,29.264,-87.766,378.36,372.75,1012.87,-9,28.74,28.70,33.26,11.07,254.62,33.04,1012.87,-9,-9,289.50,9.39,362.17,2,357.21,2,4.96,0.79,9.41,134.06,-9
AOML_Brown,RB200307,265.231,22092003,05:32:19,29.257,-87.783,379.70,372.75,1012.80,-9,28.81,28.73,33.38,11.06,257.58,33.03,1012.80,-9,-9,289.50,9.39,362.87,2,357.21,2,5.66,0.81,9.45,133.17,-9
AOML_Brown,RB200307,265.242,22092003,05:48:39,29.233,-87.840,385.10,372.75,1012.74,-9,28.82,28.78,33.89,11.11,252.35,33.06,1012.74,-9,-9,289.50,9.39,368.41,2,357.21,2,11.20,0.78,9.41,129.66,-9
AOML_Brown,RB200307,265.245,22092003,05:53:19,29.226,-87.856,387.25,372.75,1012.63,-9,28.90,28.83,33.90,10.96,252.07,33.05,1012.63,-9,-9,289.50,9.39,369.99,2,357.21,2,12.78,0.77,9.39,134.35,-9
AOML_Brown,RB200307,265.248,22092003,05:57:39,29.219,-87.871,388.09,372.75,1012.49,-9,28.88,28.77,33.86,11.04,252.72,33.05,1012.49,-9,-9,289.50,9.39,370.27,2,357.21,2,13.06,0.77,9.34,135.34,-9
AOML_Brown,RB200307,265.252,22092003,06:02:19,29.213,-87.888,387.83,372.75,1012.46,-9,28.80,28.70,33.95,10.99,254.91,33.04,1012.46,-9,-9,289.50,9.39,370.17,2,357.21,2,12.96,0.77,9.39,133.05,-9
AOML_Brown,RB200307,265.263,22092003,06:18:39,29.190,-87.946,395.26,373.08,1012.25,-9,28.65,28.53,33.39,11.04,254.49,33.08,1012.25,-9,-9,289.50,9.39,377.10,2,357.45,2,19.65,0.87,9.48,135.39,-9
AOML_Brown,RB200307,265.266,22092003,06:23:19,29.186,-87.964,396.73,373.08,1012.26,-9,28.60,28.48,32.71,10.92,256.88,33.07,1012.26,-9,-9,289.50,9.39,378.52,2,357.45,2,21.06,0.89,9.46,144.98,-9
AOML_Brown,RB200307,265.269,22092003,06:27:39,29.182,-87.981,391.98,373.08,1012.20,-9,28.56,28.50,32.39,11.00,254.69,33.07,1012.20,-9,-9,289.50,9.39,374.79,2,357.45,2,17.33,0.89,9.50,145.30,-9
AOML_Brown,RB200307,265.272,22092003,06:32:19,29.178,-87.999,387.14,373.08,1012.08,-9,28.59,28.50,32.25,10.94,254.13,33.05,1012.08,-9,-9,289.50,9.39,369.74,2,357.45,2,12.28,0.89,9.54,140.32,-9
AOML_Brown,RB200307,265.284,22092003,06:48:39,29.159,-88.017,385.08,373.08,1012.34,-9,28.62,28.51,32.56,10.96,253.95,33.06,1012.34,-9,-9,289.50,9.39,367.48,2,357.45,2,10.03,0.85,9.28,36.20,-9
AOML_Brown,RB200307,265.287,22092003,06:53:19,29.159,-88.016,385.47,373.08,1011.96,-9,28.60,28.53,32.96,11.02,255.38,33.05,1011.96,-9,-9,289.50,9.39,368.25,2,357.45,2,10.80,0.87,9.12,121.41,-9
AOML_Brown,RB200307,265.290,22092003,06:57:39,29.158,-88.017,386.21,373.08,1012.28,-9,28.60,28.54,33.06,11.00,254.36,33.06,1012.28,-9,-9,289.50,9.39,369.31,2,357.45,2,11.86,0.88,9.12,347.81,-9
AOML_Brown,RB200307,265.293,22092003,07:02:19,29.158,-88.017,387.77,373.08,1012.08,-9,28.63,28.56,33.29,10.99,255.63,33.04,1012.08,-9,-9,289.50,9.39,370.56,2,357.45,2,13.11,0.83,9.34,57.81,-9
AOML_Brown,RB200307,265.305,22092003,07:18:59,29.158,-88.017,387.91,373.44,1011.62,-9,28.61,28.52,32.86,10.99,254.08,33.05,1011.62,-9,-9,289.50,9.39,370.25,2,357.61,2,12.64,0.86,9.35,55.31,-9
AOML_Brown,RB200307,265.308,22092003,07:23:19,29.158,-88.017,388.54,373.44,1011.63,-9,28.63,28.54,32.95,11.08,253.93,33.04,1011.63,-9,-9,289.50,9.39,370.89,2,357.61,2,13.28,0.84,9.39,56.40,-9
AOML_Brown,RB200307,265.311,22092003,07:27:39,29.158,-88.017,388.78,373.44,1011.61,-9,28.61,28.53,32.86,10.96,256.32,33.05,1011.61,-9,-9,289.50,9.39,371.14,2,357.61,2,13.53,0.87,9.39,57.10,-9
AOML_Brown,RB200307,265.314,22092003,07:32:19,29.158,-88.017,388.76,373.44,1011.58,-9,28.61,28.54,33.00,11.00,256.37,33.03,1011.58,-9,-9,289.50,9.39,371.34,2,357.61,2,13.73,0.86,9.39,57.20,-9
AOML_Brown,RB200307,265.325,22092003,07:48:39,29.158,-88.017,388.98,373.44,1011.45,-9,28.65,28.56,33.24,10.92,255.10,33.05,1011.45,-9,-9,289.50,9.39,371.12,2,357.61,2,13.51,0.85,9.32,56.91,-9
AOML_Brown,RB200307,265.329,22092003,07:53:19,29.158,-88.017,388.85,373.44,1011.45,-9,28.61,28.51,32.64,11.01,253.06,33.04,1011.45,-9,-9,289.50,9.39,370.95,2,357.61,2,13.34,0.86,9.32,57.51,-9
AOML_Brown,RB200307,265.332,22092003,07:57:39,29.158,-88.017,388.10,373.44,1011.32,-9,28.61,28.55,33.04,10.93,254.20,33.04,1011.32,-9,-9,289.50,9.39,370.72,2,357.61,2,13.11,0.87,9.39,57.50,-9
AOML_Brown,RB200307,265.335,22092003,08:02:19,29.158,-88.017,388.45,373.44,1011.63,-9,28.62,28.54,33.01,11.10,254.13,33.02,1011.63,-9,-9,289.50,9.39,370.92,2,357.61,2,13.31,0.86,9.39,59.00,-9
AOML_Brown,RB200307,265.347,22092003,08:18:59,29.158,-88.017,388.16,373.16,1011.21,-9,28.60,28.52,32.69,10.94,255.08,33.04,1011.21,-9,-9,289.50,9.39,370.53,2,357.17,2,13.36,0.85,9.39,59.00,-9
AOML_Brown,RB200307,265.350,22092003,08:23:19,29.158,-88.017,387.11,373.16,1011.22,-9,28.59,28.52,32.62,10.89,255.60,33.03,1011.22,-9,-9,289.50,9.39,369.62,2,357.17,2,12.44,0.87,9.39,57.60,-9
AOML_Brown,RB200307,265.353,22092003,08:27:59,29.158,-88.017,386.24,373.16,1011.14,-9,28.60,28.49,32.36,10.99,253.07,33.03,1011.14,-9,-9,289.50,9.39,368.22,2,357.17,2,11.05,0.88,9.39,59.40,-9
AOML_Brown,RB200307,265.356,22092003,08:32:19,29.158,-88.017,384.93,373.16,1011.18,-9,28.57,28.50,32.50,10.97,257.06,33.01,1011.18,-9,-9,289.50,9.39,367.59,2,357.17,2,10.42,0.87,9.39,62.30,-9
AOML_Brown,RB200307,265.367,22092003,08:48:59,29.158,-88.017,385.39,373.16,1011.04,-9,28.63,28.52,32.77,11.05,253.90,33.04,1011.04,-9,-9,289.50,9.39,367.34,2,357.17,2,10.16,0.85,9.39,58.30,-9
AOML_Brown,RB200307,265.370,22092003,08:53:19,29.158,-88.017,386.39,373.16,1011.15,-9,28.61,28.54,32.78,10.94,254.59,33.03,1011.15,-9,-9,289.50,9.39,368.85,2,357.17,2,11.67,0.85,9.32,57.21,-9
AOML_Brown,RB200307,265.373,22092003,08:57:39,29.158,-88.017,385.39,373.16,1011.22,-9,28.58,28.48,32.31,10.83,253.93,33.03,1011.22,-9,-9,289.50,9.39,367.60,2,357.17,2,10.43,0.87,9.39,59.00,-9
AOML_Brown,RB200307,265.377,22092003,09:02:19,29.158,-88.017,383.47,373.16,1011.18,-9,28.56,28.46,32.28,10.94,252.49,33.01,1011.18,-9,-9,289.50,9.39,365.73,2,357.17,2,8.56,0.88,9.39,57.80,-9
AOML_Brown,RB200307,265.388,22092003,09:18:59,29.158,-88.017,382.48,373.39,1011.14,-9,28.61,28.54,32.93,10.89,254.82,33.03,1011.14,-9,-9,289.50,9.39,365.16,2,357.42,2,7.75,0.87,9.39,58.30,-9
AOML_Brown,RB200307,265.391,22092003,09:23:19,29.158,-88.017,383.33,373.39,1011.16,-9,28.59,28.47,32.36,10.96,256.36,33.02,1011.16,-9,-9,289.50,9.39,365.35,2,357.42,2,7.93,0.88,9.39,59.20,-9
AOML_Brown,RB200307,265.394,22092003,09:27:39,29.158,-88.017,383.05,373.39,1011.10,-9,28.59,28.53,32.72,10.96,254.37,33.02,1011.10,-9,-9,289.50,9.39,365.84,2,357.42,2,8.42,0.89,9.39,64.10,-9
AOML_Brown,RB200307,265.397,22092003,09:32:19,29.158,-88.017,383.57,373.39,1011.12,-9,28.59,28.49,32.38,11.05,258.33,33.00,1011.12,-9,-9,289.50,9.39,365.78,2,357.42,2,8.36,0.88,9.39,67.80,-9
AOML_Brown,RB200307,265.409,22092003,09:48:59,29.158,-88.017,381.09,373.39,1011.03,-9,28.56,28.48,32.11,11.03,253.82,33.01,1011.03,-9,-9,289.50,9.39,363.65,2,357.42,2,6.23,0.88,9.39,66.70,-9
AOML_Brown,RB200307,265.412,22092003,09:53:19,29.158,-88.017,381.07,373.39,1011.17,-9,28.58,28.51,32.46,10.88,255.67,33.00,1011.17,-9,-9,289.50,9.39,363.78,2,357.42,2,6.36,0.86,9.39,67.80,-9
AOML_Brown,RB200307,265.415,22092003,09:57:59,29.158,-88.017,381.85,373.39,1011.14,-9,28.56,28.49,32.23,10.90,254.46,33.01,1011.14,-9,-9,289.50,9.39,364.58,2,357.42,2,7.17,0.87,9.32,71.41,-9
AOML_Brown,RB200307,265.418,22092003,10:02:19,29.158,-88.017,381.13,373.39,1011.22,-9,28.58,28.48,32.10,10.89,254.64,32.99,1011.22,-9,-9,289.50,9.39,363.55,2,357.42,2,6.13,0.90,9.39,69.90,-9
AOML_Brown,RB200307,265.430,22092003,10:18:59,29.158,-88.017,380.47,373.19,1011.11,-9,28.59,28.51,32.03,10.83,253.80,33.01,1011.11,-9,-9,289.50,9.39,363.12,2,357.28,2,5.84,0.92,9.39,77.00,-9
AOML_Brown,RB200307,265.433,22092003,10:23:19,29.158,-88.017,380.08,373.19,1011.19,-9,28.59,28.51,31.87,11.01,256.25,33.00,1011.19,-9,-9,289.50,9.39,362.81,2,357.28,2,5.53,0.93,9.34,72.81,-9
AOML_Brown,RB200307,265.436,22092003,10:27:39,29.158,-88.017,379.80,373.19,1011.18,-9,28.59,28.51,32.17,10.88,258.41,33.00,1011.18,-9,-9,289.50,9.39,362.50,2,357.28,2,5.22,0.91,9.39,71.10,-9
AOML_Brown,RB200307,265.439,22092003,10:32:19,29.158,-88.017,380.73,373.19,1011.20,-9,28.58,28.51,32.26,10.87,258.65,32.99,1011.20,-9,-9,289.50,9.39,363.54,2,357.28,2,6.26,0.90,9.39,72.30,-9
AOML_Brown,RB200307,265.450,22092003,10:48:40,29.158,-88.017,380.36,373.19,1011.39,-9,28.62,28.54,32.38,10.82,252.56,33.01,1011.39,-9,-9,289.50,9.39,363.01,2,357.28,2,5.73,0.90,9.39,73.60,-9
AOML_Brown,RB200307,265.454,22092003,10:53:20,29.158,-88.017,381.08,373.19,1011.48,-9,28.61,28.52,32.09,10.80,254.33,33.00,1011.48,-9,-9,289.50,9.39,363.65,2,357.28,2,6.37,0.89,9.31,73.41,-9
AOML_Brown,RB200307,265.457,22092003,10:58:00,29.158,-88.017,381.08,373.19,1011.54,-9,28.62,28.53,31.94,10.81,255.62,32.99,1011.54,-9,-9,289.50,9.39,363.74,2,357.28,2,6.46,0.91,9.39,74.00,-9
AOML_Brown,RB200307,265.460,22092003,11:02:20,29.158,-88.017,381.08,373.19,1011.58,-9,28.62,28.52,32.12,10.80,255.72,32.98,1011.58,-9,-9,289.50,9.39,363.54,2,357.28,2,6.26,0.92,9.39,72.10,-9
AOML_Brown,RB200307,265.472,22092003,11:19:00,29.158,-88.017,381.31,373.22,1011.58,-9,28.62,28.54,31.78,11.03,253.95,33.00,1011.58,-9,-9,289.50,9.39,364.08,2,357.38,2,6.70,0.95,9.39,76.50,-9
AOML_Brown,RB200307,265.475,22092003,11:23:20,29.158,-88.017,380.83,373.22,1011.63,-9,28.60,28.55,32.23,10.76,256.58,33.00,1011.63,-9,-9,289.50,9.39,364.00,2,357.38,2,6.61,0.94,9.39,75.20,-9
AOML_Brown,RB200307,265.478,22092003,11:28:00,29.158,-88.017,381.44,373.22,1011.66,-9,28.62,28.55,31.99,11.03,256.18,32.99,1011.66,-9,-9,289.50,9.39,364.31,2,357.38,2,6.93,0.92,9.39,75.30,-9
AOML_Brown,RB200307,265.481,22092003,11:32:20,29.158,-88.017,381.44,373.22,1011.59,-9,28.64,28.55,32.05,10.94,256.07,32.99,1011.59,-9,-9,289.50,9.39,364.03,2,357.38,2,6.64,0.91,9.39,74.80,-9
AOML_Brown,RB200307,265.492,22092003,11:49:00,29.158,-88.017,381.88,373.22,1011.62,-9,28.62,28.55,31.98,10.95,253.02,33.00,1011.62,-9,-9,289.50,9.39,364.78,2,357.38,2,7.40,0.94,9.39,95.90,-9
AOML_Brown,RB200307,265.495,22092003,11:53:20,29.158,-88.017,381.92,373.22,1011.69,-9,28.64,28.53,31.90,10.87,254.96,33.00,1011.69,-9,-9,289.50,9.39,364.23,2,357.38,2,6.85,0.94,9.39,110.10,-9
AOML_Brown,RB200307,265.499,22092003,11:58:00,29.158,-88.017,381.86,373.22,1011.77,-9,28.65,28.57,32.02,10.76,253.24,32.99,1011.77,-9,-9,289.50,9.39,364.57,2,357.38,2,7.19,0.95,9.34,103.61,-9
AOML_Brown,RB200307,265.502,22092003,12:02:20,29.158,-88.017,381.55,373.22,1011.75,-9,28.62,28.57,31.99,10.82,257.37,32.99,1011.75,-9,-9,289.50,9.39,364.76,2,357.38,2,7.38,0.94,9.39,101.60,-9
AOML_Brown,RB200307,265.513,22092003,12:19:00,29.156,-88.019,381.32,373.39,1011.81,-9,28.65,28.39,31.07,10.90,254.62,33.01,1011.81,-9,-9,289.50,9.39,361.79,2,357.76,2,4.02,0.97,8.85,171.64,-9